AFR2664 LIRF-LFPG

Flight info

Callsign AFR2664
Flight time 1h 35m
Altitude 36000
Route NEMBO DCT GOVGO DCT AOSTA DCT ORSUD DCT MOLUS DCT UNKIR DCT GIVRI DCT TINIL
Aircraft A320/M-SDE3FGHIRWY/LB1

Departure

Time 2026-05-07 05:22
Airport Rome–Fiumicino Leonardo da Vinci International Airport (LIRF)

Arrival

Time 2026-05-07 06:58
Airport Charles de Gaulle International Airport (LFPG)
Time Latitude Longitude Altitude Speed Heading
2026-05-07 04:37 41.79654 12.25596 0 ft 0 kts 295°
2026-05-07 05:08 41.79652 12.25603 15 ft 4 kts 295°
2026-05-07 05:08 41.79641 12.25633 16 ft 2 kts 295°
2026-05-07 05:09 41.79632 12.25654 17 ft 4 kts
2026-05-07 05:09 41.79619 12.25650 18 ft 3 kts 25°
2026-05-07 05:09 41.79643 12.25666 16 ft 4 kts 25°
2026-05-07 05:09 41.79668 12.25681 16 ft 4 kts 25°
2026-05-07 05:10 41.79692 12.25696 15 ft 4 kts 25°
2026-05-07 05:10 41.79717 12.25712 15 ft 4 kts 25°
2026-05-07 05:10 41.79741 12.25727 15 ft 4 kts 25°
2026-05-07 05:10 41.79766 12.25743 15 ft 4 kts 25°
2026-05-07 05:11 41.79790 12.25758 17 ft 4 kts 25°
2026-05-07 05:11 41.79796 12.25762 16 ft 0 kts 25°
2026-05-07 05:16 41.79820 12.25777 8 ft 7 kts 25°
2026-05-07 05:16 41.79863 12.25808 15 ft 8 kts 39°
2026-05-07 05:17 41.79923 12.25853 15 ft 10 kts 24°
2026-05-07 05:17 41.79983 12.25890 15 ft 9 kts 25°
2026-05-07 05:17 41.80034 12.25923 17 ft 10 kts 25°
2026-05-07 05:17 41.80130 12.25982 17 ft 19 kts 25°
2026-05-07 05:18 41.80243 12.26051 15 ft 19 kts 25°
2026-05-07 05:18 41.80365 12.26127 15 ft 19 kts 25°
2026-05-07 05:18 41.80485 12.26182 15 ft 17 kts 11°
2026-05-07 05:18 41.80548 12.26308 17 ft 18 kts 69°
2026-05-07 05:19 41.80593 12.26473 17 ft 17 kts 71°
2026-05-07 05:19 41.80633 12.26616 17 ft 17 kts 69°
2026-05-07 05:19 41.80675 12.26769 15 ft 18 kts 69°
2026-05-07 05:19 41.80722 12.26937 16 ft 20 kts 70°
2026-05-07 05:20 41.80784 12.27054 15 ft 12 kts
2026-05-07 05:20 41.80846 12.27026 16 ft 9 kts 338°
2026-05-07 05:20 41.80898 12.27000 16 ft 7 kts 339°
2026-05-07 05:20 41.80944 12.26977 14 ft 7 kts 340°
2026-05-07 05:21 41.80958 12.26924 13 ft 8 kts 250°
2026-05-07 05:21 41.80951 12.26898 13 ft 3 kts 250°
2026-05-07 05:21 41.80873 12.26614 15 ft 77 kts 250°
2026-05-07 05:22 41.80583 12.25577 17 ft 157 kts 249°
2026-05-07 05:22 41.80137 12.23968 224 ft 199 kts 250°
2026-05-07 05:22 41.79675 12.22176 1035 ft 210 kts 251°
2026-05-07 05:22 41.79318 12.20212 1902 ft 222 kts 265°
2026-05-07 05:23 41.79210 12.18092 2616 ft 230 kts 268°
2026-05-07 05:23 41.79151 12.15905 3258 ft 239 kts 268°
2026-05-07 05:23 41.79103 12.13664 3847 ft 242 kts 268°
2026-05-07 05:23 41.79053 12.11404 4433 ft 243 kts 267°
2026-05-07 05:24 41.79005 12.09124 5016 ft 250 kts 268°
2026-05-07 05:24 41.78989 12.06721 5607 ft 266 kts 268°
2026-05-07 05:24 41.78991 12.04194 6200 ft 275 kts 268°
2026-05-07 05:24 41.78999 12.01631 6778 ft 275 kts 268°
2026-05-07 05:25 41.79004 11.99070 7356 ft 275 kts 268°
2026-05-07 05:25 41.79004 11.96504 7935 ft 275 kts 268°
2026-05-07 05:25 41.79002 11.93940 8514 ft 275 kts 268°
2026-05-07 05:25 41.78995 11.91375 9092 ft 275 kts 268°
2026-05-07 05:26 41.78985 11.88810 9670 ft 276 kts 268°
2026-05-07 05:26 41.78973 11.86227 10249 ft 278 kts 268°
2026-05-07 05:26 41.78963 11.83626 10828 ft 280 kts 268°
2026-05-07 05:26 41.78955 11.81010 11406 ft 282 kts 268°
2026-05-07 05:27 41.78946 11.78373 11985 ft 284 kts 268°
2026-05-07 05:27 41.78937 11.75754 12558 ft 288 kts 268°
2026-05-07 05:27 41.78927 11.73022 13142 ft 297 kts 268°
2026-05-07 05:27 41.78915 11.70210 13725 ft 306 kts 268°
2026-05-07 05:28 41.78899 11.67322 14306 ft 314 kts 268°
2026-05-07 05:28 41.78881 11.64333 14618 ft 331 kts 268°
2026-05-07 05:28 41.78863 11.61183 15023 ft 342 kts 268°
2026-05-07 05:28 41.79024 11.57980 15615 ft 349 kts 279°
2026-05-07 05:29 41.79734 11.54850 16251 ft 355 kts 292°
2026-05-07 05:29 41.80988 11.51980 16870 ft 361 kts 305°
2026-05-07 05:29 41.82643 11.49409 17495 ft 365 kts 309°
2026-05-07 05:29 41.84330 11.46852 18108 ft 368 kts 309°
2026-05-07 05:30 41.86027 11.44268 18701 ft 371 kts 308°
2026-05-07 05:30 41.87738 11.41652 19284 ft 374 kts 308°
2026-05-07 05:30 41.89456 11.39017 19863 ft 377 kts 308°
2026-05-07 05:30 41.91187 11.36360 20438 ft 379 kts 307°
2026-05-07 05:31 41.92930 11.33685 21001 ft 382 kts 307°
2026-05-07 05:31 41.94687 11.30989 21543 ft 385 kts 307°
2026-05-07 05:31 41.96456 11.28276 22079 ft 388 kts 307°
2026-05-07 05:31 41.98242 11.25534 22588 ft 391 kts 307°
2026-05-07 05:32 42.00036 11.22776 23072 ft 393 kts 306°
2026-05-07 05:32 42.01844 11.19994 23538 ft 396 kts 306°
2026-05-07 05:32 42.03658 11.17199 23993 ft 399 kts 306°
2026-05-07 05:32 42.05490 11.14370 24436 ft 401 kts 306°
2026-05-07 05:33 42.07330 11.11523 24860 ft 404 kts 306°
2026-05-07 05:33 42.09180 11.08661 25253 ft 407 kts 306°
2026-05-07 05:33 42.11043 11.05779 25646 ft 409 kts 306°
2026-05-07 05:33 42.12919 11.02876 26017 ft 412 kts 306°
2026-05-07 05:34 42.14804 10.99957 26385 ft 414 kts 306°
2026-05-07 05:34 42.16700 10.97014 26730 ft 417 kts 306°
2026-05-07 05:34 42.18606 10.94052 27087 ft 419 kts 306°
2026-05-07 05:34 42.20520 10.91075 27429 ft 422 kts 306°
2026-05-07 05:35 42.22422 10.88115 27763 ft 424 kts 305°
2026-05-07 05:35 42.24380 10.85060 28106 ft 426 kts 305°
2026-05-07 05:35 42.26296 10.82076 28433 ft 428 kts 306°
2026-05-07 05:35 42.27717 10.80134 28636 ft 434 kts 313°
2026-05-07 05:36 42.31037 10.76994 29031 ft 448 kts 326°
2026-05-07 05:36 42.33936 10.75326 29312 ft 457 kts 334°
2026-05-07 05:36 42.36926 10.73861 29584 ft 459 kts 334°
2026-05-07 05:36 42.39930 10.72382 29847 ft 460 kts 334°
2026-05-07 05:37 42.42949 10.70892 30096 ft 462 kts 334°
2026-05-07 05:37 42.45971 10.69399 30344 ft 464 kts 334°
2026-05-07 05:37 42.48027 10.68381 30506 ft 465 kts 333°
2026-05-07 05:37 42.51067 10.66869 30799 ft 465 kts 333°
2026-05-07 05:38 42.54103 10.65356 31127 ft 464 kts 333°
2026-05-07 05:38 42.57132 10.63841 31460 ft 463 kts 333°
2026-05-07 05:38 42.60154 10.62332 31794 ft 462 kts 333°
2026-05-07 05:38 42.63171 10.60828 32114 ft 462 kts 333°
2026-05-07 05:39 42.66189 10.59328 32427 ft 461 kts 333°
2026-05-07 05:39 42.69202 10.57832 32737 ft 461 kts 333°
2026-05-07 05:39 42.72207 10.56337 33036 ft 460 kts 333°
2026-05-07 05:39 42.75208 10.54838 33347 ft 459 kts 333°
2026-05-07 05:40 42.78206 10.53337 33660 ft 458 kts 333°
2026-05-07 05:40 42.81190 10.51846 33973 ft 457 kts 333°
2026-05-07 05:40 42.84174 10.50353 34269 ft 456 kts 333°
2026-05-07 05:40 42.87150 10.48859 34558 ft 456 kts 333°
2026-05-07 05:41 42.90124 10.47362 34838 ft 455 kts 333°
2026-05-07 05:41 42.93054 10.45886 35103 ft 455 kts 333°
2026-05-07 05:41 42.96061 10.44372 35362 ft 454 kts 333°
2026-05-07 05:41 42.99023 10.42880 35600 ft 454 kts 333°
2026-05-07 05:42 43.01986 10.41383 35825 ft 454 kts 333°
2026-05-07 05:42 43.04944 10.39882 35991 ft 454 kts 333°
2026-05-07 05:42 43.07901 10.38380 36030 ft 453 kts 333°
2026-05-07 05:43 43.13823 10.35382 36029 ft 453 kts 333°
2026-05-07 05:43 43.19324 10.31586 36030 ft 440 kts 317°
2026-05-07 05:44 43.24117 10.26454 36029 ft 437 kts 315°
2026-05-07 05:44 43.28903 10.21284 36002 ft 438 kts 314°
2026-05-07 05:45 43.33688 10.16111 35997 ft 438 kts 314°
2026-05-07 05:45 43.38471 10.10931 35997 ft 438 kts 314°
2026-05-07 05:46 43.43249 10.05746 36002 ft 438 kts 314°
2026-05-07 05:46 43.48028 10.00547 35998 ft 438 kts 313°
2026-05-07 05:47 43.52803 9.95333 36000 ft 438 kts 313°
2026-05-07 05:47 43.57573 9.90115 36002 ft 438 kts 313°
2026-05-07 05:48 43.62349 9.84886 36004 ft 438 kts 313°
2026-05-07 05:48 43.67124 9.79651 36005 ft 438 kts 313°
2026-05-07 05:49 43.71893 9.74413 36006 ft 438 kts 313°
2026-05-07 05:49 43.76662 9.69163 36006 ft 438 kts 313°
2026-05-07 05:50 43.81420 9.63909 36004 ft 438 kts 313°
2026-05-07 05:50 43.86177 9.58650 36003 ft 437 kts 313°
2026-05-07 05:51 43.90926 9.53371 36002 ft 437 kts 313°
2026-05-07 05:51 43.95678 9.48097 36001 ft 437 kts 313°
2026-05-07 05:52 44.00394 9.42851 36003 ft 437 kts 313°
2026-05-07 05:52 44.05135 9.37552 36002 ft 437 kts 313°
2026-05-07 05:53 44.09871 9.32248 35999 ft 437 kts 313°
2026-05-07 05:53 44.14619 9.26936 36002 ft 438 kts 313°
2026-05-07 05:54 44.19360 9.21619 36003 ft 437 kts 313°
2026-05-07 05:54 44.24102 9.16285 35955 ft 438 kts 312°
2026-05-07 05:55 44.28846 9.10934 35945 ft 438 kts 312°
2026-05-07 05:55 44.33588 9.05572 35942 ft 439 kts 312°
2026-05-07 05:56 44.38337 9.00193 35944 ft 439 kts 312°
2026-05-07 05:56 44.43078 8.94800 35945 ft 439 kts 312°
2026-05-07 05:57 44.47821 8.89397 35941 ft 440 kts 312°
2026-05-07 05:57 44.52579 8.83987 35940 ft 441 kts 312°
2026-05-07 05:58 44.57337 8.78560 35930 ft 441 kts 312°
2026-05-07 05:58 44.62095 8.73111 35935 ft 442 kts 312°
2026-05-07 05:59 44.66849 8.67650 35943 ft 441 kts 312°
2026-05-07 05:59 44.71596 8.62196 35947 ft 441 kts 311°
2026-05-07 06:00 44.76335 8.56729 35949 ft 440 kts 311°
2026-05-07 06:00 44.81066 8.51255 35951 ft 440 kts 311°
2026-05-07 06:01 44.85801 8.45778 35951 ft 440 kts 311°
2026-05-07 06:01 44.90495 8.40339 35951 ft 439 kts 311°
2026-05-07 06:02 44.95215 8.34848 35949 ft 439 kts 311°
2026-05-07 06:02 44.99942 8.29351 35947 ft 440 kts 311°
2026-05-07 06:03 45.04657 8.23841 35946 ft 440 kts 311°
2026-05-07 06:03 45.09370 8.18316 35944 ft 440 kts 311°
2026-05-07 06:04 45.14087 8.12787 35946 ft 440 kts 311°
2026-05-07 06:04 45.18814 8.07233 35928 ft 442 kts 313°
2026-05-07 06:05 45.23553 8.01651 35925 ft 444 kts 313°
2026-05-07 06:05 45.28300 7.96042 35925 ft 445 kts 313°
2026-05-07 06:06 45.33065 7.90410 35927 ft 445 kts 313°
2026-05-07 06:06 45.37826 7.84761 35929 ft 446 kts 313°
2026-05-07 06:07 45.42580 7.79094 35932 ft 446 kts 313°
2026-05-07 06:07 45.47344 7.73419 35928 ft 447 kts 313°
2026-05-07 06:08 45.52123 7.67714 35914 ft 449 kts 313°
2026-05-07 06:08 45.56924 7.61971 35917 ft 452 kts 313°
2026-05-07 06:09 45.61752 7.56177 35914 ft 455 kts 313°
2026-05-07 06:09 45.66608 7.50336 35910 ft 457 kts 313°
2026-05-07 06:10 45.71481 7.44467 35936 ft 459 kts 313°
2026-05-07 06:10 45.76350 7.38596 35974 ft 457 kts 312°
2026-05-07 06:11 45.81240 7.32777 35952 ft 459 kts 315°
2026-05-07 06:11 45.86425 7.27380 35940 ft 461 kts 318°
2026-05-07 06:12 45.91764 7.22183 35945 ft 467 kts 319°
2026-05-07 06:12 45.97089 7.16903 35948 ft 464 kts 317°
2026-05-07 06:13 46.02331 7.11546 35945 ft 459 kts 317°
2026-05-07 06:13 46.07502 7.06176 35946 ft 457 kts 317°
2026-05-07 06:14 46.12667 7.00835 35953 ft 458 kts 317°
2026-05-07 06:14 46.15263 6.98161 36056 ft 460 kts 318°
2026-05-07 06:14 46.17892 6.95454 36047 ft 467 kts 318°
2026-05-07 06:15 46.23180 6.90012 36047 ft 466 kts 318°
2026-05-07 06:15 46.28420 6.84585 36043 ft 466 kts 318°
2026-05-07 06:16 46.33688 6.79108 36038 ft 467 kts 318°
2026-05-07 06:16 46.38963 6.73607 36055 ft 467 kts 318°
2026-05-07 06:17 46.43932 6.67706 36076 ft 454 kts 306°
2026-05-07 06:17 46.47426 6.60310 36083 ft 441 kts 293°
2026-05-07 06:18 46.50419 6.52730 36058 ft 426 kts 293°
2026-05-07 06:18 46.53354 6.45293 36059 ft 423 kts 293°
2026-05-07 06:19 46.56274 6.37860 36058 ft 424 kts 293°
2026-05-07 06:19 46.58707 6.31661 36057 ft 427 kts 293°
2026-05-07 06:20 46.61655 6.24132 36059 ft 428 kts 293°
2026-05-07 06:20 46.64600 6.16598 36061 ft 428 kts 293°
2026-05-07 06:21 46.67533 6.09045 36065 ft 428 kts 293°
2026-05-07 06:21 46.70460 6.01493 36071 ft 428 kts 293°
2026-05-07 06:22 46.73381 5.93945 36074 ft 427 kts 293°
2026-05-07 06:22 46.77739 5.82647 36077 ft 425 kts 293°
2026-05-07 06:23 46.80875 5.75298 36071 ft 433 kts 304°
2026-05-07 06:23 46.85519 5.69520 36072 ft 449 kts 324°
2026-05-07 06:24 46.91014 5.65122 36070 ft 450 kts 327°
2026-05-07 06:24 46.96508 5.60729 36057 ft 449 kts 327°
2026-05-07 06:25 47.01972 5.56329 36053 ft 448 kts 327°
2026-05-07 06:25 47.07424 5.51917 36053 ft 447 kts 327°
2026-05-07 06:26 47.12866 5.47505 36036 ft 447 kts 327°
2026-05-07 06:26 47.18310 5.43089 35750 ft 447 kts 327°
2026-05-07 06:27 47.23742 5.38678 35949 ft 447 kts 327°
2026-05-07 06:27 47.29186 5.34237 36030 ft 447 kts 327°
2026-05-07 06:28 47.34628 5.29801 35764 ft 447 kts 327°
2026-05-07 06:28 47.37343 5.27586 35382 ft 447 kts 327°
2026-05-07 06:28 47.40062 5.25364 35217 ft 446 kts 327°
2026-05-07 06:29 47.42778 5.23140 34637 ft 447 kts 327°
2026-05-07 06:29 47.45501 5.20904 33893 ft 449 kts 327°
2026-05-07 06:29 47.48237 5.18650 33396 ft 452 kts 327°
2026-05-07 06:29 47.50996 5.16372 32845 ft 455 kts 327°
2026-05-07 06:30 47.53769 5.14083 32273 ft 458 kts 327°
2026-05-07 06:30 47.56567 5.11777 31705 ft 461 kts 328°
2026-05-07 06:30 47.59298 5.09300 31139 ft 460 kts 320°
2026-05-07 06:30 47.61761 5.06290 30595 ft 461 kts 317°
2026-05-07 06:31 47.64210 5.03222 30053 ft 463 kts 317°
2026-05-07 06:31 47.66675 5.00127 29513 ft 465 kts 317°
2026-05-07 06:31 47.69147 4.97019 28985 ft 466 kts 318°
2026-05-07 06:31 47.71622 4.93902 28457 ft 467 kts 318°
2026-05-07 06:32 47.74099 4.90779 28092 ft 468 kts 318°
2026-05-07 06:32 47.76580 4.87647 27981 ft 467 kts 318°
2026-05-07 06:32 47.79039 4.84533 27269 ft 465 kts 318°
2026-05-07 06:32 47.81505 4.81399 26609 ft 467 kts 318°
2026-05-07 06:33 47.83977 4.78252 26205 ft 469 kts 319°
2026-05-07 06:33 47.86460 4.75094 25760 ft 470 kts 319°
2026-05-07 06:33 47.88945 4.71930 25317 ft 470 kts 319°
2026-05-07 06:33 47.91429 4.68764 24879 ft 470 kts 319°
2026-05-07 06:34 47.93913 4.65594 24438 ft 470 kts 319°
2026-05-07 06:34 47.96395 4.62418 23997 ft 472 kts 319°
2026-05-07 06:34 47.98890 4.59216 23553 ft 474 kts 319°
2026-05-07 06:34 48.01388 4.56008 23108 ft 474 kts 319°
2026-05-07 06:35 48.03854 4.52839 22798 ft 458 kts 319°
2026-05-07 06:35 48.06218 4.49796 22672 ft 437 kts 319°
2026-05-07 06:35 48.08478 4.46884 22315 ft 423 kts 319°
2026-05-07 06:35 48.10692 4.44032 21894 ft 417 kts 319°
2026-05-07 06:36 48.12875 4.41220 21368 ft 412 kts 319°
2026-05-07 06:36 48.15026 4.38440 20844 ft 406 kts 319°
2026-05-07 06:36 48.17153 4.35688 20323 ft 403 kts 319°
2026-05-07 06:36 48.19259 4.32962 19929 ft 397 kts 319°
2026-05-07 06:37 48.21337 4.30264 19561 ft 394 kts 319°
2026-05-07 06:37 48.23397 4.27585 19196 ft 390 kts 319°
2026-05-07 06:37 48.25438 4.24930 18833 ft 387 kts 319°
2026-05-07 06:37 48.27269 4.22007 18475 ft 383 kts 309°
2026-05-07 06:38 48.28958 4.18937 18109 ft 380 kts 309°
2026-05-07 06:38 48.30634 4.15887 17754 ft 376 kts 309°
2026-05-07 06:38 48.32293 4.12865 17405 ft 374 kts 309°
2026-05-07 06:38 48.33942 4.09858 17054 ft 372 kts 309°
2026-05-07 06:39 48.35584 4.06850 16705 ft 371 kts 309°
2026-05-07 06:39 48.37217 4.03853 16361 ft 370 kts 309°
2026-05-07 06:39 48.38848 4.00863 16012 ft 369 kts 309°
2026-05-07 06:39 48.40472 3.97892 15667 ft 367 kts 309°
2026-05-07 06:40 48.42093 3.94925 15326 ft 365 kts 309°
2026-05-07 06:40 48.43700 3.91983 14988 ft 364 kts 309°
2026-05-07 06:40 48.45280 3.89077 14650 ft 362 kts 309°
2026-05-07 06:40 48.46872 3.86144 14308 ft 360 kts 308°
2026-05-07 06:41 48.48454 3.83228 14041 ft 358 kts 308°
2026-05-07 06:41 48.50028 3.80323 14022 ft 358 kts 308°
2026-05-07 06:41 48.51600 3.77421 13845 ft 355 kts 308°
2026-05-07 06:41 48.53159 3.74549 13367 ft 352 kts 308°
2026-05-07 06:42 48.54590 3.71584 12926 ft 348 kts 302°
2026-05-07 06:42 48.55903 3.68534 12474 ft 345 kts 302°
2026-05-07 06:42 48.57205 3.65503 12014 ft 341 kts 301°
2026-05-07 06:42 48.58489 3.62510 11565 ft 338 kts 301°
2026-05-07 06:43 48.59762 3.59542 11134 ft 335 kts 301°
2026-05-07 06:43 48.61188 3.56770 11007 ft 335 kts 314°
2026-05-07 06:43 48.63057 3.54645 10790 ft 338 kts 328°
2026-05-07 06:43 48.65086 3.52872 10482 ft 333 kts 328°
2026-05-07 06:44 48.67061 3.51171 10344 ft 320 kts 328°
2026-05-07 06:44 48.68957 3.49541 10215 ft 306 kts 328°
2026-05-07 06:44 48.70749 3.47998 9976 ft 290 kts 328°
2026-05-07 06:44 48.72484 3.46493 9614 ft 286 kts 328°
2026-05-07 06:45 48.74201 3.44994 9235 ft 285 kts 328°
2026-05-07 06:45 48.75911 3.43501 8943 ft 282 kts 328°
2026-05-07 06:45 48.77609 3.42019 8702 ft 281 kts 328°
2026-05-07 06:45 48.79278 3.40562 8464 ft 279 kts 328°
2026-05-07 06:46 48.80937 3.39112 8308 ft 270 kts 328°
2026-05-07 06:46 48.82530 3.37724 8178 ft 258 kts 328°
2026-05-07 06:46 48.84055 3.36394 8048 ft 248 kts 328°
2026-05-07 06:46 48.85520 3.35109 7924 ft 238 kts 327°
2026-05-07 06:47 48.86934 3.33867 7704 ft 232 kts 327°
2026-05-07 06:47 48.88329 3.32640 7408 ft 231 kts 327°
2026-05-07 06:47 48.89715 3.31420 7106 ft 230 kts 327°
2026-05-07 06:47 48.91093 3.30206 6859 ft 229 kts 327°
2026-05-07 06:48 48.92463 3.28998 6636 ft 228 kts 327°
2026-05-07 06:48 48.93783 3.27679 6444 ft 226 kts 317°
2026-05-07 06:48 48.94847 3.25956 6254 ft 222 kts 303°
2026-05-07 06:48 48.95597 3.23917 6072 ft 221 kts 290°
2026-05-07 06:49 48.96071 3.21694 5885 ft 220 kts 286°
2026-05-07 06:49 48.96518 3.19471 5699 ft 220 kts 286°
2026-05-07 06:49 48.96967 3.17253 5518 ft 219 kts 286°
2026-05-07 06:49 48.97410 3.15069 5338 ft 218 kts 286°
2026-05-07 06:50 48.97856 3.12872 5192 ft 217 kts 286°
2026-05-07 06:50 48.98302 3.10673 5105 ft 217 kts 286°
2026-05-07 06:50 48.98746 3.08478 5012 ft 216 kts 286°
2026-05-07 06:50 48.99177 3.06336 4919 ft 207 kts 286°
2026-05-07 06:51 48.99587 3.04290 4838 ft 198 kts 286°
2026-05-07 06:51 48.99980 3.02334 4744 ft 190 kts 286°
2026-05-07 06:51 49.00360 3.00436 4658 ft 186 kts 286°
2026-05-07 06:51 49.00736 2.98561 4616 ft 184 kts 286°
2026-05-07 06:52 49.01094 2.96776 4531 ft 184 kts 286°
2026-05-07 06:52 49.01287 2.94885 4410 ft 184 kts 269°
2026-05-07 06:52 49.01189 2.92942 4261 ft 184 kts 265°
2026-05-07 06:52 49.01079 2.91004 4182 ft 185 kts 266°
2026-05-07 06:53 49.00979 2.89091 3986 ft 177 kts 266°
2026-05-07 06:53 49.00886 2.87277 3767 ft 168 kts 267°
2026-05-07 06:53 49.00796 2.85513 3567 ft 167 kts 266°
2026-05-07 06:53 49.00706 2.83751 3356 ft 167 kts 268°
2026-05-07 06:54 49.00617 2.81992 3128 ft 167 kts 267°
2026-05-07 06:54 49.00529 2.80272 2929 ft 154 kts 268°
2026-05-07 06:54 49.00448 2.78720 2723 ft 141 kts 267°
2026-05-07 06:54 49.00375 2.77279 2518 ft 132 kts 265°
2026-05-07 06:55 49.00304 2.75901 2350 ft 131 kts 264°
2026-05-07 06:55 49.00231 2.74479 2169 ft 140 kts 265°
2026-05-07 06:55 49.00154 2.72980 1986 ft 143 kts 265°
2026-05-07 06:55 49.00075 2.71464 1798 ft 144 kts 266°
2026-05-07 06:56 48.99997 2.69966 1610 ft 144 kts 266°
2026-05-07 06:56 48.99918 2.68438 1419 ft 145 kts 268°
2026-05-07 06:56 48.99840 2.66906 1184 ft 145 kts 267°
2026-05-07 06:56 48.99757 2.65372 1020 ft 146 kts 267°
2026-05-07 06:57 48.99681 2.63825 829 ft 146 kts 267°
2026-05-07 06:57 48.99594 2.62286 642 ft 146 kts 267°
2026-05-07 06:57 48.99518 2.60770 459 ft 143 kts 266°
2026-05-07 06:57 48.99437 2.59307 359 ft 129 kts 266°
2026-05-07 06:58 48.99376 2.58177 353 ft 83 kts 265°
2026-05-07 06:58 48.99350 2.57564 351 ft 33 kts 264°
2026-05-07 06:58 48.99398 2.57237 362 ft 28 kts 284°
2026-05-07 06:58 48.99443 2.56983 358 ft 19 kts 287°
2026-05-07 06:59 48.99458 2.56898 358 ft 0 kts 285°
2026-05-07 07:02 48.99459 2.56893 357 ft 4 kts 285°
2026-05-07 07:02 48.99471 2.56812 360 ft 8 kts 279°
2026-05-07 07:02 48.99476 2.56731 356 ft 9 kts 274°
2026-05-07 07:03 48.99519 2.56636 354 ft 17 kts 348°
2026-05-07 07:03 48.99666 2.56625 358 ft 21 kts 358°
2026-05-07 07:03 48.99801 2.56620 361 ft 19 kts 30°
2026-05-07 07:03 48.99845 2.56819 361 ft 21 kts 81°
2026-05-07 07:04 48.99852 2.56968 357 ft 21 kts 88°
2026-05-07 07:04 48.99859 2.57198 358 ft 22 kts 86°
2026-05-07 07:04 48.99880 2.57508 356 ft 23 kts 84°
2026-05-07 07:04 48.99895 2.57760 354 ft 24 kts 85°
2026-05-07 07:05 48.99905 2.58014 354 ft 24 kts 85°
2026-05-07 07:05 48.99920 2.58276 354 ft 25 kts 85°
2026-05-07 07:05 48.99928 2.58451 354 ft 24 kts 84°
2026-05-07 07:05 48.99940 2.58662 354 ft 18 kts 84°
2026-05-07 07:06 49.00018 2.58749 361 ft 16 kts
2026-05-07 07:06 49.00132 2.58766 354 ft 18 kts 356°
2026-05-07 07:06 49.00265 2.58751 353 ft 20 kts 356°
2026-05-07 07:06 49.00404 2.58739 355 ft 17 kts 358°
2026-05-07 07:07 49.00524 2.58718 353 ft 19 kts 356°
2026-05-07 07:07 49.00661 2.58702 353 ft 21 kts 355°
2026-05-07 07:07 49.00807 2.58680 354 ft 20 kts 350°
2026-05-07 07:07 49.00843 2.58553 356 ft 14 kts 263°
2026-05-07 07:08 49.00834 2.58398 355 ft 15 kts 265°
2026-05-07 07:08 49.00826 2.58239 355 ft 15 kts 265°
2026-05-07 07:08 49.00758 2.58129 354 ft 15 kts 191°
2026-05-07 07:08 49.00680 2.58133 355 ft 6 kts 179°
2026-05-07 07:09 49.00669 2.58134 353 ft 0 kts 177°
2026-05-07 07:09 49.00664 2.58134 353 ft 4 kts 175°
2026-05-07 07:09 49.00601 2.58164 362 ft 11 kts 134°
2026-05-07 07:10 49.00621 2.58242 356 ft 9 kts 19°
2026-05-07 07:10 49.00691 2.58236 353 ft 11 kts 354°
2026-05-07 07:10 49.00775 2.58220 354 ft 13 kts 341°
2026-05-07 07:10 49.00773 2.58135 356 ft 10 kts 204°
2026-05-07 07:11 49.00708 2.58114 358 ft 8 kts 219°
2026-05-07 07:11 49.00696 2.58074 353 ft 2 kts 253°
2026-05-07 07:11 49.00693 2.58058 358 ft 2 kts 255°
2026-05-07 07:11 49.00690 2.58042 356 ft 2 kts 255°
2026-05-07 07:12 49.00686 2.58021 355 ft 0 kts 255°